STARLINK-1964

operational
NORAD ID: 47565 Int'l Des: 2021-009 Owner: SPXS Country: US Constellation: starlink
LEOCIRCULARSTARLINK_TYPE

Über STARLINK-1964

Beschreibung wird geladen...

Live-Position

3D-Globus wird geladen...

Nächste Überflüge

Höhenverlauf

Altitude vs Time

uPlot chart will show altitude changes over time

Zweizeiliger Elementsatz

1 47565U 21009T 25248.05479713 -.00000915 00000-0 -42534-4 0 9995
2 47565 53.0543 124.9670 0001491 92.0157 268.1003 15.06384480252959
Epoch: 5. Sept. 2025 • Age: 19 hours

Aktueller Status

Höhe 566.2 km
Geschwindigkeit 7.58 km/s
Subsatellitenpunkt -51.73°S, 88.18°E
Startdatum 4. Feb. 2021
Alter 4.5 years
Typ internet

Technische Details

Klassifizierung Payload
Masse 260.00 kg
Trockenmasse 248.00 kg
Gesamtmasse 260.00 kg
Länge 0.20 m
Durchmesser 2.80 m
Spannweite 9.00 m
Form Box + pan
Hersteller SPXS
Bus-Typ Starlink
Phasenstatus In Orbit
Besitzer/Staat SPXS/US

Große Konstellationen

Loading constellations...